Location: Ergnies
(50.0854°N, 2.0375°E)
Time: 19:13:32
(UTC+00:00)

Cosmos 381 Rocket - Pass Details

Date: 14 January 2026
Orbit: 956 x 994 km, 74.0° (Epoch: 13 February)

Event Time Altitude Azimuth Distance (km) Brightness Sun altitude
Exits shadow 05:02:00 32° 211° (SSW) 1,646 5.4 -25.5°
Maximum altitude 05:05:15 81° 294° (WNW) 1,012 4.4 -25.0°
Drops below altitude 10° 05:11:41 10° 23° (NNE) 2,763 7.1 -23.9°
Sets 05:14:15 0° 24° (NNE) 3,712 7.8 -23.5°
